Location: Rhea Mills
(33.2623°N, 96.7330°W)
Time: 03:32:20
(UTC+00:00)

Daily predictions for brighter satellites

Satellite Brightness Start Highest point End
(mag) Time Altitude Azimuth Time Altitude Azimuth Time Altitude Azimuth
Cosmos 1821 Rocket 4.1 01:55:19 10° N 02:01:30 86° W 02:07:35 10° S
SL-16 R/B 2.2 01:59:33 10° S 02:05:08 65° ESE 02:10:44 10° NNE
Cosmos 2322 Rocket 2.5 02:00:15 10° S 02:05:41 48° ESE 02:11:09 10° NNE
Centaur D-1AR AC-36 3.5 02:05:28 10° SW 02:07:09 13° S 02:09:03 10° SSE
OBJECT-B 1.0 02:05:13 10° SSE 02:08:19 50° ENE 02:11:25 10° N
Cosmos 1470 4.2 02:05:56 10° NNE 02:09:04 22° ENE 02:12:11 10° SE
ATLAS 3B R/B 3.8 02:05:08 10° SSE 02:09:36 20° ESE 02:14:06 10° ENE
USA 234 4.1 02:04:32 10° SSE 02:10:47 47° SW 02:17:03 10° NW
NOSS 3-2 (C) 4.2 02:05:48 10° SW 02:11:06 55° NW 02:17:04 10° NNE
MOS 1-B Rocket 4.2 02:05:37 10° N 02:11:15 75° WNW 02:17:22 10° SSW
Cosmos 1420 Rocket 4.0 02:06:18 10° SSW 02:11:28 89° W 02:16:41 10° NNE
KM-V1 3.5 02:10:11 10° WSW 02:12:18 46° S 02:15:24 10° E
FALCON 9 DEB 3.3 02:09:58 10° SSW 02:12:51 39° SE 02:15:46 10° ENE
Cosmos 1378 Rocket 3.5 02:10:30 10° S 02:14:46 64° E 02:19:06 10° NNE
Okean 1 Rocket 4.0 02:13:33 10° NNE 02:17:24 30° ENE 02:21:15 10° SE
Cosmos 1190 Rocket 4.1 02:12:10 10° NNW 02:17:28 75° ENE 02:22:46 10° SSE
SJ-6B 2.9 02:14:02 10° SSE 02:18:06 68° ENE 02:22:08 10° N
CZ-4 R/B 4.1 02:16:01 10° SW 02:18:16 15° W 02:20:32 10° WNW
FALCON 9 DEB 3.5 02:16:55 10° SSW 02:19:44 33° SE 02:22:35 10° ENE
Cosmos 2227 4.4 02:16:50 10° N 02:22:20 54° ENE 02:27:47 10° SE
Cosmos 1733 4.2 02:19:00 10° NNW 02:22:45 49° W 02:26:27 10° SSW
FALCON 9 DEB 3.0 02:20:06 10° SSW 02:23:06 49° SE 02:26:07 10° NE
Cosmos 1238 4.3 02:20:22 10° S 02:23:58 66° E 02:27:03 10° NNE
Resurs 1-3 4.1 02:20:52 10° SE 02:24:59 42° ENE 02:29:07 10° N
USA 186 2.4 02:22:52 10° S 02:25:32 48° W 02:28:25 10° NNW
Helios 1A Rocket 3.4 02:27:03 10° S 02:31:03 60° W 02:35:03 10° NNW
Cosmos 2237 4.2 02:27:48 10° S 02:33:23 61° ESE 02:38:59 10° NNE
Cosmos 1934 Rocket 4.0 02:28:44 10° N 02:34:53 86° W 02:41:06 10° S
Cosmos 1626 4.3 02:35:59 10° E 02:36:16 10° E 02:37:01 10° ENE
Cosmos 1315 Rocket 3.3 02:33:15 10° N 02:37:12 44° E 02:40:17 15° SSE
Cosmos 1707 2.7 02:33:28 10° S 02:37:17 65° E 02:41:08 10° NNE
Meteor 1-21 4.2 02:32:06 10° S 02:37:46 85° E 02:43:25 10° N
Cosmos 1844 Rocket 4.4 02:36:56 10° NNE 02:40:44 18° ENE 02:44:09 11° E
IRS-1A Rocket 4.4 02:35:15 10° SSE 02:41:06 73° ENE 02:46:53 10° N
Ariane Rocket 3.0 02:39:06 10° SSE 02:44:04 72° ENE 02:49:09 10° N
SPOT 3 Rocket 4.3 02:42:00 16° SE 02:45:33 36° ENE 02:50:15 10° N
SL-4 R/B 3.8 02:42:39 10° S 02:49:25 - ENE 02:44:17 16° SSE
Meteor 2-20 4.4 02:42:48 10° S 02:48:54 82° E 02:55:00 10° N
ERS-2 3.8 02:45:39 10° N 02:49:00 35° WNW 02:52:20 10° SW
Cosmos 1954 Rocket 4.0 02:44:09 10° NNW 02:49:29 90° WNW 02:54:05 14° SSE
Cosmos 676 Rocket 4.0 02:45:38 10° NNW 02:51:00 90° W 02:55:32 14° SSE
CZ-2C R/B 4.3 02:47:15 10° NNE 02:51:44 40° E 02:55:05 16° SSE
Lacrosse 5 rocket 2.1 02:50:39 10° SW 02:54:20 49° NW 02:57:53 10° NNE
Lacrosse 5 1.9 02:50:18 10° NW 02:55:22 70° NE 02:58:35 22° SE
Cosmos 2263 Rocket 2.6 02:49:50 10° NNW 02:55:28 64° WSW 03:00:40 12° S
In-Cosmos 22 4.0 02:51:01 10° S 02:56:16 73° E 03:01:32 10° NNE
Cosmos 1758 3.4 02:53:56 10° N 02:57:51 57° E 03:00:01 24° SSE
ATLAS 2A CENTAUR R/B 3.8 02:37:24 10° SW 02:59:05 40° S 03:03:32 20° ESE
Cosmos 1975 Rocket 3.1 02:58:54 17° SSE 03:02:04 58° E 03:06:22 10° NNE
Landsat 7 4.1 02:59:40 22° SE 03:02:28 53° ENE 03:07:06 10° N
Cosmos 1727 Rocket 4.0 02:57:12 10° S 03:03:30 83° E 03:09:49 10° N
Cosmos 1110 Rocket 3.9 03:01:51 10° S 03:06:58 71° ESE 03:12:09 10° NNE
Cosmos 2333 4.4 03:01:31 10° S 03:07:03 49° ESE 03:12:33 10° NNE
Yuri Rocket 4.3 03:01:58 10° WSW 03:07:40 49° SSE 03:14:28 14° E
Delta 128 4.4 03:04:16 10° WSW 03:08:18 34° S 03:09:42 27° SSE
Resurs 01 Rocket 1.5 03:06:34 24° SSE 03:09:12 78° ENE 03:13:36 10° N
Cosmos 1605 Rocket 4.3 03:05:51 10° NNW 03:12:11 69° W 03:18:22 10° S
KORONAS-FOTON 3.6 03:12:02 27° S 03:14:01 74° E 03:17:47 10° N
Cosmos 2333 Rocket 2.3 03:16:10 17° S 03:20:28 53° ESE 03:26:01 10° NNE
Cosmos 1674 2.5 03:19:14 28° S 03:21:06 87° W 03:24:49 10° N
USA 81 4.0 03:16:30 10° N 03:21:47 87° W 03:25:10 23° S
Cosmos 2219 Rocket 2.5 03:19:18 26° SSE 03:22:07 45° ESE 03:27:30 10° NE
Cosmos 1953 2.7 03:18:54 10° N 03:22:48 45° E 03:23:31 40° ESE
BREEZE-M DEB (TANK) 3.7 03:23:43 10° W 03:25:42 23° NNW 03:28:07 10° NNE
Cosmos 1726 3.8 03:24:01 10° NNW 03:27:12 29° W 03:29:46 14° SSW
ASTRO E2 2.6 03:25:46 10° WSW 03:29:42 63° S 03:30:13 56° SE
Cosmos 1802 Rocket 4.5 03:25:17 10° N 03:31:18 45° E 03:33:34 33° SE
Cosmos 1844 4.3 03:30:09 10° N 03:35:25 42° ENE 03:37:07 33° ESE
Cosmos 1459 Rocket 4.0 03:29:52 10° N 03:35:51 61° E 03:38:14 36° SSE
Cosmos 1000 Rocket 4.4 03:35:49 20° S 03:40:14 86° W 03:46:24 10° N
Cosmos 2237 Rocket 4.1 03:44:17 14° ENE 03:44:17 14° ENE 03:45:50 10° ENE
ERS-1 Rocket 3.5 03:44:13 37° E 03:45:05 41° ENE 03:49:47 10° N
Cosmos 1340 2.7 03:46:01 61° ENE 03:46:01 61° ENE 03:49:24 10° NNE
Cosmos 2360 Rocket 3.6 03:40:51 10° SW 03:46:03 38° WNW 03:51:17 10° N
ARIANE 5 R/B 2.8 03:45:36 51° ESE 03:46:07 54° ENE 03:50:30 10° N
Spot 2 Rocket 3.5 03:46:38 49° SE 03:47:52 68° ENE 03:52:55 10° N
Cosmos 1850 Rocket 4.1 03:43:26 10° NNW 03:48:41 70° WSW 03:50:27 41° S
Meteor 1-24 Rocket 4.2 03:49:56 37° E 03:50:03 37° E 03:54:59 10° NNE
Cosmos 1544 Rocket 3.5 03:46:13 10° N 03:50:38 62° E 03:50:53 60° ESE
Cosmos 1455 Rocket 3.3 03:50:41 10° NNW 03:55:07 64° W 03:56:07 48° SSW
SPOT 1/Viking Rocket 3.7 03:54:25 40° SSW 03:56:11 65° WSW 04:01:18 10° NNW
NOSS 0 Rocket 4.5 03:58:45 37° E 03:58:45 37° E 04:04:09 10° NE
ATLAS 3B R/B 3.1 03:53:13 10° SW 03:59:38 60° WNW 04:06:13 10° NNE
Cosmos 2123 Rocket 3.9 04:03:20 39° S 04:05:54 88° W 04:12:15 10° N
Uosat 12 SS-18 rocket 4.2 04:06:19 49° SW 04:07:20 71° WNW 04:11:57 10° NNE
Cosmos 1908 4.1 04:05:54 10° NNW 04:09:34 43° W 04:09:39 43° W
Cosmos 1626 3.6 04:10:27 30° W 04:11:03 32° W 04:14:24 10° NNW
Cosmos 2061 Rocket 4.0 04:05:15 10° N 04:11:41 76° E 04:13:10 55° SSE
Cosmos 2322 4.4 04:06:40 11° SW 04:11:52 52° WNW 04:17:23 10° N
Cosmos 1302 Rocket 4.4 04:09:48 31° SW 04:12:17 62° WNW 04:17:30 10° N
Cosmos 1461 3.2 04:08:18 10° NW 04:11:53 57° W 04:11:53 57° W
Terra 2.1 04:12:29 52° ENE 04:12:29 52° ENE 04:17:00 10° N
COSMOS 2428 2.7 04:10:08 35° SSW 04:12:40 79° WNW 04:18:26 10° NNE
Cosmos 1900 4.3 04:08:24 10° NNW 04:13:17 68° ENE 04:13:22 68° ENE
Aureole 1 Rocket 4.4 04:07:40 10° NNW 04:14:18 74° WSW 04:17:14 42° S
SPOT 5 2.8 04:15:59 76° SSE 04:16:25 87° ENE 04:21:25 10° NNW
Cosmos 1536 Rocket 3.7 04:17:04 69° W 04:17:11 70° W 04:21:38 10° N
ATLAS CENTAUR R/B 2.2 04:12:55 10° NNW 04:16:58 47° NE 04:16:58 47° NE
Cosmos 2233 Rocket 4.2 04:13:12 10° N 04:19:08 49° E 04:19:39 48° E
BREEZE M DEB (TANK) 4.4 04:17:19 10° SW 04:21:36 82° NW 04:38:46 10° NE
IUS-18 SRM-1 3.9 04:14:14 10° WSW 04:20:37 35° SW 04:20:37 35° SW
Cosmos 2278 Rocket 3.9 04:17:43 10° NNE 04:21:50 20° ENE 04:22:35 20° ENE
Cosmos 1844 Rocket 3.0 04:19:24 10° NNW 04:24:57 55° WSW 04:25:49 50° SW
SL-4 R/B 2.8 04:20:52 10° WSW 04:25:03 50° NW 04:28:56 10° NE
USA 215 3.1 04:24:39 10° NE 04:31:11 72° SE 04:32:55 51° SSW
Lacrosse 5 4.1 04:35:18 10° W 04:37:46 14° WSW 04:37:47 14° WSW
Cosmos 2016 Rocket 4.4 04:37:27 10° NNW 04:43:21 53° W 04:44:37 45° SW
Meteor 2-10 Rocket 3.9 04:47:08 10° N 04:51:13 55° NNE 04:51:13 55° NNE
Cosmos 1980 3.7 04:53:24 72° NE 04:53:24 72° NE 04:58:29 10° NNE
Cosmos 968 Rocket 3.7 04:49:07 10° NNW 04:53:28 64° N 04:53:28 64° N
Cosmos 1486 Rocket 4.5 04:51:21 10° N 04:55:40 54° NNE 04:55:40 54° NNE
Cosmos 1992 Rocket 4.4 04:57:08 59° WNW 04:57:08 59° WNW 05:02:12 10° N
Cosmos 2219 Rocket 4.4 05:01:58 10° WSW 05:06:14 22° WNW 05:10:32 10° N
ATLAS CENTAUR R/B 3.2 05:08:15 53° NE 05:08:15 53° NE 05:15:12 10° NE
SL-16 R/B 3.5 05:25:29 30° NE 05:25:29 30° NE 05:28:37 10° NE
Cosmos 2237 Rocket 2.8 05:26:03 52° WNW 05:26:03 52° WNW 05:31:24 10° N
SJ 16-02 4.1 05:30:39 10° NE 05:30:53 10° NE 05:30:53 10° NE
Cosmos 2034 Rocket 4.4 05:37:26 10° N 05:42:38 53° NE 05:42:38 53° NE
GEOS 3 Rocket 4.5 05:47:15 46° NNE 05:47:15 46° NNE 05:51:44 10° NNW
Terra 4.4 05:51:22 12° W 05:51:22 12° W 05:52:18 10° WNW
NOSS 3-1 (C) 4.2 05:53:14 40° NE 05:53:14 40° NE 05:56:55 10° NNE
Tsikada Rocket 4.3 06:05:58 63° NNE 06:05:58 63° NNE 06:11:04 10° N
Cosmos 2278 Rocket 3.3 06:00:43 10° NNW 06:04:25 37° WNW 06:04:25 37° WNW
Cosmos 1943 Rocket 3.1 06:29:45 10° N 06:33:59 42° NNE 06:33:59 42° NNE
USA 267 3.9 06:41:13 40° E 06:43:05 50° NE 06:49:20 10° NNW
CZ-2D R/B 4.4 06:45:30 10° ENE 06:47:12 14° ENE 06:47:12 14° ENE
Cosmos 2279 Rocket 4.3 06:53:50 10° N 06:59:19 62° NE 06:59:19 62° NE
Cosmos 1634 Rocket 4.3 06:56:20 10° NNW 07:01:35 59° NW 07:01:35 59° NW
SL-16 R/B 4.0 07:07:19 21° WNW 07:07:32 22° WNW 07:11:49 10° N
SJ 16-02 3.7 07:06:34 10° NNW 07:07:51 19° NNW 07:07:51 19° NNW
Cosmos 1898 Rocket 4.5 07:13:00 10° N 07:17:07 43° NE 07:17:07 43° NE
Cosmos 2369 Rocket 2.6 07:21:00 10° NNW 07:25:56 60° NNE 07:25:56 60° NNE
Exosat Rocket 4.4 07:27:41 55° WNW 07:27:41 55° WNW 07:33:02 10° N
Nadezhda 4 Rocket 4.0 07:29:04 72° NE 07:29:04 72° NE 07:34:41 10° N
ATLAS 5 CENTAUR R/B 3.6 07:34:05 22° NE 07:34:05 22° NE 07:35:39 10° NE
Cosmos 2263 4.5 07:35:24 10° NNW 07:40:42 62° NE 07:40:42 62° NE
Lacrosse 4 Rocket 4.3 07:41:08 10° NE 07:42:29 11° NE 07:43:49 10° ENE
Aureole 3 Rocket 4.5 07:44:14 10° NNE 07:48:30 40° E 07:48:34 40° E
Meteor 2-2 Rocket 4.4 07:45:49 10° N 07:51:26 77° NW 07:51:26 77° NW
Cosmos 2098 Rocket 4.0 07:56:36 55° NNW 07:56:36 55° NNW 08:00:30 10° N
Cosmos 2208 Rocket 4.2 07:58:36 70° NE 07:58:36 70° NE 08:03:27 10° NNE
Cosmos 921 Rocket 4.5 07:59:46 32° N 07:59:46 32° N 08:02:12 10° N
SL-16 R/B 2.9 08:00:14 46° ESE 08:01:48 59° ENE 08:07:51 10° N
Cosmos 1627 Rocket 4.4 08:06:29 70° SE 08:07:05 77° E 08:13:27 10° N
Resurs 1-4 Rocket 2.1 08:03:45 10° N 08:08:42 74° NNW 08:08:42 74° NNW
Cosmos 1092 Rocket 3.8 08:09:41 81° WSW 08:09:53 83° W 08:16:03 10° N
Cosmos 2151 4.0 08:11:14 44° NE 08:11:14 44° NE 08:14:16 10° NNE
X-37B 4.1 08:10:54 10° N 08:11:39 11° N 08:12:25 10° NNE
CZ-4C R/B 3.6 08:12:05 21° ESE 08:12:05 21° ESE 08:15:39 10° ENE
Meteor 2-19 Rocket 4.3 08:12:44 76° WSW 08:12:57 77° W 08:19:06 10° N
Cosmos 1943 Rocket 4.4 08:14:45 10° WNW 08:15:29 12° WNW 08:15:29 12° WNW
ADEOS II 2.4 08:15:01 10° NNE 08:20:12 56° E 08:20:33 54° ESE
Meteor 2-3 Rocket 3.9 08:20:40 56° SE 08:21:21 61° E 08:26:50 10° NNE
NPP 3.5 08:16:33 10° N 08:21:57 77° WNW 08:21:57 77° WNW
Cosmos 1428 Rocket 4.3 08:22:50 70° SSW 08:23:34 81° W 08:29:53 10° N
USA 267 4.3 08:28:31 29° W 08:28:31 29° W 08:32:05 10° WNW
CZ-2D R/B 2.4 08:23:38 10° N 08:28:31 51° WNW 08:28:31 51° WNW
GPS 2-04 Rocket1 3.8 08:32:08 42° NE 08:32:08 42° NE 08:34:57 10° ENE
AQUA 3.8 08:26:22 10° N 08:30:49 72° NW 08:30:49 72° NW
ERBS 4.4 08:35:36 26° NNE 08:35:36 26° NNE 08:37:11 10° NE
IDEFIX/ARIANE 42P 3.6 08:29:13 10° NNE 08:34:04 37° E 08:35:30 31° SE
Cosmos 2221 4.4 08:30:46 10° NNW 08:32:29 20° NW 08:32:29 20° NW
Delta 2 Rocket 4.5 08:37:21 35° E 08:37:21 35° E 08:39:46 10° E
Cosmos 1809 Rocket 4.4 08:39:11 51° S 08:40:50 78° E 08:47:01 10° N
Cosmos 1782 4.3 08:39:09 10° NNE 08:42:46 32° E 08:43:51 27° ESE
CBERS-1 4.1 08:46:31 10° NNE 08:51:39 68° ESE 08:52:55 49° SSE
IRS-1D 3.4 08:47:10 10° NNE 08:52:16 89° E 08:53:07 63° SSW
Helios 1B rocket 3.9 08:52:50 10° NNW 08:55:36 25° NW 08:55:36 25° NW
Tianhe-1 2.8 08:58:01 29° E 08:58:01 29° E 08:59:46 10° ENE
ATLAS 2A CENTAUR R/B 3.8 09:06:09 25° SE 09:06:09 25° SE 09:10:03 10° ESE
Meteor 1-28 Rocket 3.2 09:05:33 64° SE 09:06:00 75° ENE 09:09:48 10° N
Chunghua 1 4.5 09:09:39 75° NNW 09:09:45 76° N 09:13:24 10° E
Cosmos 2369 Rocket 4.4 09:07:41 10° WNW 09:07:41 10° WNW 09:07:41 10° WNW
Meteor 2-14 Rocket 4.4 09:07:56 41° SSW 09:10:07 72° W 09:16:14 10° N
Cosmos 1933 3.7 09:06:58 10° NNW 09:10:38 49° WNW 09:10:38 49° WNW
Meteor 2-21 Rocket 4.4 09:09:18 34° S 09:12:08 89° E 09:18:20 10° N
Cosmos 1553 Rocket 3.9 09:06:46 10° N 09:13:01 78° W 09:16:14 30° S
ATLAS 5 CENTAUR R/B 4.5 09:05:07 27° WSW 09:14:27 49° S 10:23:51 10° ESE
MSX 4.0 09:09:41 10° NNE 09:15:27 72° ESE 09:18:33 28° S
ATLAS 5 CENTAUR R/B 3.9 09:15:56 10° NW 09:16:45 10° NW 09:17:34 10° NNW
DELTA 2 DEB (DPAF) 4.0 09:16:18 46° S 09:17:34 75° WSW 09:22:02 10° NNW
SeaSat 1 2.4 09:13:41 10° NNE 09:18:38 88° ESE 09:20:25 41° SSW
S3M 4.1 09:13:06 10° N 09:19:17 78° E 09:24:41 14° S
Cosmos 2298 Rocket 3.9 09:14:18 10° NNW 09:19:36 73° WSW 09:22:33 27° S
USA 281 3.7 09:14:51 10° SE 09:21:16 60° ENE 09:27:43 10° NNW
Lacrosse 4 Rocket 1.6 09:17:29 10° NW 09:21:02 48° W 09:21:02 48° W
Cosmos 1151 Rocket 2.8 09:21:17 10° N 09:25:32 79° W 09:27:04 39° S
FALCON 9 DEB 3.5 09:23:25 10° NW 09:26:47 64° NE 09:30:07 10° SE
Cosmos 1766 Rocket 4.1 09:27:48 39° WSW 09:28:32 42° W 09:32:47 10° N
Cosmos 1833 Rocket 3.0 09:27:13 24° S 09:30:37 61° ESE 09:36:11 10° NNE
Cosmos 1408 Rocket 3.5 09:29:02 35° S 09:30:54 88° WNW 09:35:22 10° N
Cosmos 2150 Rocket 4.0 09:25:51 10° NNW 09:30:59 60° WSW 09:34:07 24° S
IKONOS-2 4.4 09:29:49 27° S 09:32:04 83° WSW 09:36:18 10° NNW
Cosmos 1862 3.2 09:30:47 42° SSW 09:32:06 81° W 09:36:09 10° N
NOSS 3-4 (A) 4.4 09:29:34 16° S 09:33:33 38° ESE 09:38:58 10° NE
NOSS 3-4 (C) 4.4 09:29:40 16° S 09:33:40 37° ESE 09:39:05 10° NE
Cosmos 1515 Rocket 4.4 09:29:56 10° N 09:34:15 50° E 09:38:33 10° SSE
Alouette 2 Rocket 3.4 09:31:48 10° NNW 09:35:32 70° W 09:38:45 20° S
Cosmos 1125 Rocket 3.5 09:32:52 10° NNW 09:38:05 65° WSW 09:42:31 14° S
IRS-P3 4.1 09:34:47 10° N 09:40:06 73° WNW 09:43:12 25° SSW
Okean 3 Rocket 4.4 09:39:33 29° W 09:40:22 31° W 09:44:18 10° NNW
BREEZE-M DEB (TANK) 2.9 09:38:51 29° WSW 09:41:17 83° NNW 09:44:15 10° NE
CZ-4B R/B 3.5 09:37:19 10° NNE 09:42:35 88° E 09:46:08 21° SSW
ATLAS 2AS CENTAUR R/B 4.5 09:37:44 10° SSE 09:44:17 30° ESE 09:50:53 10° NE
ADEOS Rocket 3.9 09:40:16 23° SSW 09:44:20 40° W 09:50:45 10° NNW
Gbstr 26 Del rocket 4.1 09:42:00 23° S 09:44:22 40° SE 09:49:22 10° ENE
ARIANE 5 R/B 2.4 09:40:16 10° N 09:45:17 82° WNW 09:48:35 22° SSW
SL-16 R/B 3.9 09:45:19 17° W 09:45:40 18° W 09:49:39 10° NW
COSMOS 2441 4.4 09:44:12 10° N 09:48:57 62° WNW 09:51:45 24° SSW
X-37B 3.0 09:46:22 10° NW 09:49:05 25° NNE 09:51:46 10° E
deb Kosmos-1763 4.5 09:49:19 34° WSW 09:50:14 42° WNW 09:53:36 10° N
Cosmos 2266 Rocket 4.2 09:47:29 23° SSW 09:51:09 51° W 09:57:03 10° N
RUBIN 8/PSLV 4.4 09:48:51 10° N 09:53:08 81° WNW 09:55:59 21° SSW
Cosmos 2082 Rocket 3.1 09:48:50 10° S 09:54:07 44° ESE 09:59:26 10° NE
Cosmos 883 Rocket 4.4 09:51:13 10° N 09:57:21 81° W 10:03:27 10° S
ASTEX 1 3.9 09:55:57 22° SSW 09:58:38 39° W 10:03:15 10° NNW
ADEOS II 3.9 09:56:24 10° NNW 09:59:20 15° WNW 10:01:29 12° W
CZ-4C R/B 2.9 09:57:15 20° WSW 09:59:56 34° NW 10:04:53 10° NNE
OAO 3 Rocket 3.2 10:00:37 22° WSW 10:03:34 65° SSE 10:08:19 10° E
CZ-2D R/B 3.5 10:04:30 10° N 10:08:32 57° WNW 10:11:32 17° SSW
CZ-2C R/B 1.3 10:07:20 23° SW 10:09:05 44° SSE 10:12:16 10° E
Cosmos 1812 3.3 10:05:49 10° NNW 10:09:21 37° W 10:11:50 17° SSW
GPS 2-04 Rocket1 2.7 10:06:42 10° WNW 10:10:39 76° NNE 10:14:26 10° E
IDEFIX/ARIANE 42P 4.0 10:09:27 10° NNW 10:13:20 22° WNW 10:16:18 14° WSW
CZ-2C R/B 2.9 10:10:41 10° NNE 10:14:30 73° ESE 10:18:13 10° S
Cosmos 1805 Rocket 3.7 10:10:22 10° S 10:14:43 79° E 10:19:07 10° N
FALCON 9 DEB 3.8 10:13:24 10° NW 10:16:24 50° NE 10:19:22 10° ESE
Delta 2 Rocket 3.5 10:14:09 10° W 10:18:08 62° N 10:21:45 10° ENE
Cosmos 1271 Rocket 4.1 10:15:42 10° NW 10:18:28 20° W 10:19:56 16° WSW
COSMOS 2406 3.5 10:14:08 15° SW 10:18:37 52° WNW 10:24:09 10° N
PAYLOAD A 4.1 10:15:47 10° N 10:20:51 72° WNW 10:26:07 10° SSW
IUS-17 SRM-1 4.2 10:10:00 10° WSW 10:23:13 48° S 10:26:35 10° ESE
SL-08 R/B 3.4 10:18:49 10° S 10:23:19 52° W 10:27:54 10° NNW
CENTAUR R/B 3.9 10:14:57 10° NNW 10:23:19 61° ENE 10:32:08 10° SE
FALCON 9 DEB 4.2 10:20:44 10° NNW 10:23:43 43° NE 10:26:41 10° ESE
Spot 4 Rocket 4.2 10:19:09 10° N 10:24:11 58° WNW 10:29:12 10° SSW
FALCON 9 DEB 3.3 10:23:44 10° NW 10:26:48 63° NE 10:29:49 10° SE
Chandra Rocket (1) 3.0 10:20:31 11° WSW 10:27:55 42° S 10:31:11 10° ESE
DELTA 2 R/B (1) 4.1 10:26:11 10° WNW 10:31:41 62° NNE 10:37:11 10° E
Cosmos 1500 Rocket 4.5 10:29:43 12° SW 10:33:12 30° W 10:37:00 10° NNW
Tianhe-1 2.8 10:30:49 10° WNW 10:33:33 27° NNW 10:36:19 10° NE
CZ-2C R/B 2.6 10:30:02 10° N 10:34:47 53° WNW 10:39:23 10° SSW
Cosmos 1656 3.8 10:31:15 10° NNW 10:36:47 54° WSW 10:42:15 10° S
Cosmos 1697 Rocket 2.7 10:44:13 10° NNW 10:49:54 87° WSW 10:55:33 10° SSE
Cosmos 158 Rocket 3.9 10:46:11 10° SSW 10:50:59 63° WNW 10:55:51 10° N
SL-19 R/B 4.5 10:45:34 10° S 10:51:45 69° WSW 10:57:33 10° NNW
